{"data":{"norad_id":49099,"intl_designator":"2021-075AA","name":"ONEWEB-0313","alt_names":[],"object_type":"PAYLOAD","status":"ACTIVE","operator":null,"country":"UK","launch_date":"2021-08-21","launch_site_code":"TYMSC","launch_vehicle":null,"mission":null,"orbit_class":"UNKNOWN","rcs_meters":null,"size_class":null,"mass_kg":null,"dimensions":null,"purposes":["comms"],"wikipedia_slug":null,"has_3d_model":false,"image_url":null,"decayed_at":null,"tle_current":{"epoch":"2026-09-20T04:30:41.958432Z","epoch_age_seconds":48882,"freshness":"FRESH","line1":"1 49099U 21075AA  26263.18798563  .00000083  00000+0  18106-3 0  9991","line2":"2 49099  87.9200 347.0121 0001909 104.4905 255.6438 13.17650467246105","mean_motion":13.17650467,"eccentricity":0.0001909,"inclination_deg":87.92,"raan_deg":347.0121,"arg_perigee_deg":104.4905,"mean_anomaly_deg":255.6438,"bstar":0.00018106,"rev_number":24610,"period_min":109.28543161212,"perigee_km":1192.2621746648,"apogee_km":1195.1531049483,"semimajor_km":7571.8446398065,"source":"CELESTRAK","updated_at":"2026-09-20T09:00:44.657638Z"}}}